Starlink 5636

operational
NORAD ID: 55454 Int'l Des: 2023-015 Owner: SPXS Country: US Constellation: starlink
LEOCIRCULAR

About Starlink 5636

Description loading...

Live Position

Loading 3D Globe...

Upcoming Passes

Altitude History

Altitude vs Time

uPlot chart will show altitude changes over time

Two-Line Element Set

1 55454U 23015F 26041.24783554 .00000843 00000-0 77445-4 0 9991
2 55454 43.0031 115.2972 0001223 268.3662 91.7040 15.02536817166624
Epoch: Feb 10, 2026 • Age: 10 hours

Current Status

Altitude 563.0 km
Velocity 7.59 km/s
Sub-Earth Point 42.71°N, 173.87°E
Launch Date Feb 2, 2023
Age 3 years
Type internet

Technical Details

Classification Payload
Mass 305.00 kg
Dry Mass 290.00 kg
Total Mass 305.00 kg
Length 0.20 m
Diameter 2.80 m
Span 9.00 m
Shape Box + pan
Manufacturer SPXS
Bus Type Starlink
Phase Status In Orbit
Owner/State SPXS/US

Large Constellations

Loading constellations...